THOR ABLESTAR DEB, 1511

Orbit data source: Space-Track

THOR ABLESTAR DEB, 1511 is space debris in LEO originally from a launch on Fri, 13 Aug 1965 UTC launched from the Air Force Western Test Range (AFWTR). Debris objects in space refer to the collection of defunct objects orbiting the Earth. Examples of debris include non-operational satellites, rocket bodies, and fragments generated from explosions, collisions, or faulty payload assembly.

Loading next visibility...
Identifier
1511, 1965-065D
Orbit
LEO
Country
Flag of USUS
Related business
Manufacturer
NRL
Mission
Spacecraft
Bus & Motor
Unknown
Mass
Unknown
Launch date (UTC)
1965-08-13 (60 years ago)
Launch vehicle
Unknown
Launch site
Air Force Western Test Range (AFWTR)
Object type
Payload
Rocket body
Debris
Shape & HBR
Unknown
Radar Cross Section
0.550 m², Medium (>0.1 m² and < 1m²)

Expand to show TLE details & history
Last TLE update: 6 hours ago

TLE from 6 hours ago
0 THOR ABLESTAR DEB
1 01511U 65065D   25242.88570395  .00000087  00000-0  15589-3 0  9996
2 01511  89.9806 211.6744 0067097 304.2006 114.6418 13.34171156921974
Epoch: 2025-08-30T21:15Z
TLE epoch observation values (Epoch: 2025-08-30T21:15:24.821Z)
Latitude
59.62799°
Longitude
-86.45966°
Altitude
1,162.561 km
Speed
7.267 km/s
True Right ascension
14h 06m 49s
True Declination
59° 29' 09"
Sunlit
Object was in daylight at epoch
Visualization orbit readout
Latitude
Unknown
Longitude
Unknown
Altitude
Unknown
Speed
Unknown
Apparent Right ascension
Unknown
Apparent Declination
Unknown
Sunlit
N/A
Visualization observer readout
Local Sidereal Time
18:55:41
Azimuth
Unknown
Elevation
Unknown
Doppler factor
Unknown
Orbital elements
Apogee altitude
1,178.509 km
Perigee altitude
1,077.779 km
Semi-major axis
7,506.281 km
Eccentricity
0.00671
Inclination
89.9806°
RAAN
211.6744°
Arg. of periapsis
304.2006°
True anomaly
115.3382°
Mean anomaly
114.6418°
Eccentric anomaly
114.99025°
Mean motion
3.33738 °/min
Orbital period
107.87 mins
BSTAR
0.00015589
Loading maneuver chart data...
Computing Atmospheric mass density...
Loading historical data...
Loading historical data...
Loading historical data...
Loading historical data...
Loading historical data...
Loading historical data...
Loading historical data...

Documentation

Showing up to 5 results
|